GW1618 Weather Reports


Display with metric or nautical units.
time (UTC)temp
F
wind
direction
speed
MPH
gust
MPH
rain 1hr
in
rain 24hr
in
rain mn
in
humidity
%
barometer
mb
20260502194938 63 359 4.0 6.0 0.00 0.00 0.00 62 1015.1
20260502194437 63 9 5.0 11.0 0.00 0.00 0.00 62 1015.1
20260502193934 63 350 6.0 11.0 0.00 0.00 0.00 62 1015.1
20260502193437 63 21 5.0 10.0 0.00 0.00 0.00 63 1015.3
20260502192933 62 324 5.0 10.0 0.00 0.00 0.00 64 1015.3
20260502192430 61 61 6.0 10.0 0.00 0.00 0.00 67 1015.3
20260502191931 61 33 7.0 12.0 0.00 0.00 0.00 66 1015.5
20260502191429 61 359 6.0 12.0 0.00 0.00 0.00 67 1015.5
20260502190932 61 4 6.0 11.0 0.00 0.00 0.00 67 1015.5
20260502190429 60 345 5.0 10.0 0.00 0.00 0.00 67 1015.7
20260502190218 60 9 4.0 7.0 0.00 0.00 0.00 68 1015.7
20260502185713 60 339 4.0 7.0 0.00 0.00 0.00 70 1015.7
20260502185209 59 9 4.0 6.0 0.00 0.00 0.00 70 1015.9
20260502184651 59 325 3.0 5.0 0.00 0.00 0.00 70 1015.9
20260502183903 58 41 4.0 6.0 0.00 0.00 0.00 70 1015.9
20260502183359 58 337 4.0 7.0 0.00 0.00 0.00 71 1016.0
20260502182848 58 13 3.0 7.0 0.00 0.00 0.00 73 1016.0
20260502182346 57 9 3.0 5.0 0.00 0.00 0.00 74 1016.0
20260502181841 57 315 3.0 5.0 0.00 0.00 0.00 74 1016.1
20260502181340 56 359 4.0 5.0 0.00 0.00 0.00 76 1016.1
20260502180840 56 28 4.0 6.0 0.00 0.00 0.00 77 1016.1
20260502180340 55 344 5.0 6.0 0.00 0.00 0.00 77 1016.3
20260502170330 52 359 4.0 6.0 0.00 0.00 0.00 84 1016.5
20260502170112 52 354 4.0 7.0 0.00 0.00 0.00 84 1016.5
20260502164328 52 335 4.0 6.0 0.00 0.00 0.00 85 1016.5
20260502163821 51 348 4.0 6.0 0.00 0.00 0.00 85 1016.5
20260502163311 51 335 4.0 6.0 0.00 0.00 0.00 86 1016.5
20260502162802 51 338 4.0 5.0 0.00 0.00 0.00 86 1016.5
20260502162304 51 359 4.0 5.0 0.00 0.00 0.00 86 1016.5
20260502161756 51 4 4.0 7.0 0.00 0.00 0.00 86 1016.5
20260502161256 51 359 4.0 7.0 0.00 0.00 0.00 87 1016.5
20260502161034 51 359 4.0 7.0 0.00 0.00 0.00 87 1016.5
20260502160247 50 9 5.0 7.0 0.00 0.00 0.00 88 1016.5
20260502152247 50 337 2.0 4.0 0.00 0.00 0.00 87 1016.5
20260502152031 50 9 1.0 4.0 0.00 0.00 0.00 87 1016.5
20260502151245 50 60 2.0 6.0 0.00 0.00 0.00 87 1016.5
20260502150745 50 59 3.0 6.0 0.00 0.00 0.00 87 1016.5
20260502150233 50 19 2.0 5.0 0.00 0.00 0.00 87 1016.5
20260502130615 50 18 2.0 4.0 0.00 0.00 0.00 87 1016.0
20260502130115 50 17 2.0 4.0 0.00 0.00 0.00 87 1016.0
20260502123602 50 30 2.0 3.0 0.00 0.00 0.00 87 1016.1
20260502123100 50 9 1.0 3.0 0.00 0.00 0.00 87 1016.2
20260502122601 50 25 1.0 3.0 0.00 0.00 0.00 87 1016.2
20260502122101 50 14 2.0 3.0 0.00 0.00 0.00 87 1016.2
20260502121601 50 359 1.0 3.0 0.00 0.00 0.00 87 1016.4
20260502121105 50 328 1.0 2.0 0.00 0.00 0.00 86 1016.4
20260502120834 50 323 1.0 3.0 0.00 0.00 0.00 86 1016.4
20260502115601 50 242 0.0 2.0 0.00 0.00 0.00 86 1016.5
20260502115106 50 242 1.0 2.0 0.00 0.00 0.00 86 1016.5
20260502114606 50 242 1.0 3.0 0.00 0.00 0.00 86 1016.5
20260502114104 50 265 2.0 3.0 0.00 0.00 0.00 86 1016.5
20260502113601 50 258 2.0 3.0 0.00 0.00 0.00 85 1016.5
20260502113102 50 249 2.0 3.0 0.00 0.00 0.00 85 1016.3
20260502112835 50 258 1.0 3.0 0.00 0.00 0.00 85 1016.3
20260502112059 50 161 1.0 3.0 0.00 0.00 0.00 85 1016.0
20260502111555 50 234 2.0 3.0 0.00 0.00 0.00 85 1016.0
20260502111055 50 306 2.0 4.0 0.00 0.00 0.00 85 1016.0
20260502110547 50 324 3.0 4.0 0.00 0.00 0.00 85 1016.1
20260502110045 50 312 2.0 3.0 0.00 0.00 0.00 85 1016.1
20260502105543 51 294 2.0 3.0 0.00 0.00 0.00 84 1016.1
20260502105045 51 306 2.0 4.0 0.00 0.00 0.00 84 1016.7
20260502104825 51 269 2.0 4.0 0.00 0.00 0.00 84 1016.7
20260502104032 51 223 2.0 4.0 0.00 0.00 0.00 83 1016.7
20260502103818 51 181 3.0 5.0 0.00 0.00 0.00 83 1017.0
20260502103032 51 198 4.0 8.0 0.00 0.00 0.00 83 1017.0
20260502102530 51 166 4.0 8.0 0.00 0.00 0.00 83 1017.0
20260502102035 51 157 4.0 6.0 0.00 0.00 0.00 83 1017.0
20260502101533 51 211 4.0 6.0 0.00 0.00 0.00 83 1017.0
20260502101029 51 178 4.0 6.0 0.00 0.00 0.00 84 1017.0
20260502100529 51 161 2.0 6.0 0.00 0.00 0.00 84 1016.5
20260502091450 51 55 1.0 3.0 0.00 0.00 0.00 83 1016.2
20260502090951 51 55 2.0 3.0 0.00 0.00 0.00 83 1016.2
20260502090449 51 16 2.0 3.0 0.00 0.00 0.00 83 1016.4
20260502071335 53 144 3.0 6.0 0.00 0.00 0.00 77 1016.1
20260502070833 53 170 3.0 5.0 0.00 0.00 0.00 77 1016.1
20260502070333 53 148 2.0 5.0 0.00 0.00 0.00 76 1016.1
20260502065833 53 159 2.0 5.0 0.00 0.00 0.00 76 1016.1
20260502065613 53 179 1.0 3.0 0.00 0.00 0.00 77 1016.1
20260502064831 54 317 1.0 3.0 0.00 0.00 0.00 78 1016.0
20260502064334 54 296 1.0 2.0 0.00 0.00 0.00 77 1016.0
20260502063830 54 225 1.0 3.0 0.00 0.00 0.00 75 1016.0
20260502063331 54 178 2.0 4.0 0.00 0.00 0.00 75 1016.0
20260502063105 54 158 2.0 4.0 0.00 0.00 0.00 75 1016.0
20260502062324 54 148 2.0 4.0 0.00 0.00 0.00 75 1016.0
20260502061820 54 165 3.0 5.0 0.00 0.00 0.00 74 1016.0
20260502061603 55 159 3.0 5.0 0.00 0.00 0.00 74 1016.0
20260502060820 55 182 2.0 5.0 0.00 0.00 0.00 75 1016.0
20260502060322 54 151 1.0 4.0 0.00 0.00 0.00 76 1016.0
20260502055817 54 241 1.0 3.0 0.00 0.00 0.00 76 1016.0
20260502055305 55 313 1.0 2.0 0.00 0.00 0.00 75 1016.0
20260502054806 55 318 1.0 2.0 0.00 0.00 0.00 75 1016.0
20260502054306 55 318 2.0 3.0 0.00 0.00 0.00 75 1016.0
20260502053801 55 309 2.0 4.0 0.00 0.00 0.00 74 1016.0
20260502053259 55 285 2.0 4.0 0.00 0.00 0.00 75 1016.0
20260502052747 55 346 2.0 4.0 0.00 0.00 0.00 74 1016.0
20260502052233 55 335 2.0 3.0 0.00 0.00 0.00 74 1016.0
20260502051732 55 32 2.0 4.0 0.00 0.00 0.00 75 1016.0
20260502051234 55 359 3.0 4.0 0.00 0.00 0.00 74 1016.0
20260502050733 56 9 2.0 3.0 0.00 0.00 0.00 74 1016.0
20260502050232 56 4 2.0 4.0 0.00 0.00 0.00 74 1016.0
20260502045729 56 346 3.0 6.0 0.00 0.00 0.00 73 1016.0
20260502045229 56 334 2.0 6.0 0.00 0.00 0.00 74 1016.0
20260502045018 56 323 2.0 5.0 0.00 0.00 0.00 74 1015.8
20260502044229 56 355 2.0 5.0 0.00 0.00 0.00 74 1015.8
20260502043733 56 13 3.0 6.0 0.00 0.00 0.00 74 1015.8
20260502043221 56 4 3.0 6.0 0.00 0.00 0.00 75 1015.5
20260502042734 57 29 4.0 10.0 0.00 0.00 0.00 75 1015.5
20260502041705 57 16 8.0 12.0 0.00 0.00 0.00 74 1015.4
20260502041206 57 359 8.0 13.0 0.00 0.00 0.00 74 1015.4
20260502040953 58 25 9.0 13.0 0.00 0.00 0.00 73 1015.4
20260502040451 58 32 8.0 12.0 0.00 0.00 0.00 72 1015.0
20260502035703 58 30 7.0 12.0 0.00 0.00 0.00 72 1015.0
20260502035201 58 26 8.0 13.0 0.00 0.00 0.00 71 1015.0
20260502034704 59 13 9.0 13.0 0.00 0.00 0.00 71 1014.8
20260502034159 59 20 10.0 13.0 0.00 0.00 0.00 70 1014.8
20260502033648 59 27 9.0 13.0 0.00 0.00 0.00 69 1014.8
20260502033132 60 26 8.0 13.0 0.00 0.00 0.00 69 1014.5
20260502032630 60 16 8.0 11.0 0.00 0.00 0.00 68 1014.5
20260502032130 60 359 8.0 11.0 0.00 0.00 0.00 67 1014.5
20260502031628 61 33 8.0 11.0 0.00 0.00 0.00 67 1014.4
20260502031131 61 18 6.0 11.0 0.00 0.00 0.00 64 1014.4
20260502030629 62 9 5.0 11.0 0.00 0.00 0.00 63 1014.4
20260502030128 62 35 4.0 8.0 0.00 0.00 0.00 64 1014.0
20260502025628 63 15 3.0 7.0 0.00 0.00 0.00 60 1014.0
20260502025131 64 335 4.0 7.0 0.00 0.00 0.00 59 1014.0
20260502024636 64 326 5.0 7.0 0.00 0.00 0.00 55 1013.9
20260502024119 64 334 5.0 10.0 0.00 0.00 0.00 54 1013.9
20260502023610 64 339 5.0 12.0 0.00 0.00 0.00 55 1013.9
20260502023106 64 354 5.0 12.0 0.00 0.00 0.00 54 1013.7
20260502022604 65 353 5.0 11.0 0.00 0.00 0.00 53 1013.7
20260502022105 65 340 5.0 11.0 0.00 0.00 0.00 53 1013.7
20260502021606 65 348 5.0 11.0 0.00 0.00 0.00 53 1013.4
20260502021102 65 337 5.0 10.0 0.00 0.00 0.00 53 1013.4
20260502020852 65 352 6.0 11.0 0.00 0.00 0.00 53 1013.4
20260502020355 66 348 7.0 14.0 0.00 0.00 0.00 53 1013.4
20260502015849 66 319 9.0 16.0 0.00 0.00 0.00 53 1013.4
20260502015109 66 288 9.0 16.0 0.00 0.00 0.00 53 1013.4
20260502014608 66 298 8.0 14.0 0.00 0.00 0.00 53 1013.3
20260502014107 67 333 10.0 16.0 0.00 0.00 0.00 52 1013.3
20260502013555 67 316 11.0 16.0 0.00 0.00 0.00 51 1013.3
20260502013051 67 306 11.0 18.0 0.00 0.00 0.00 51 1013.3
20260502012549 67 290 12.0 18.0 0.00 0.00 0.00 50 1013.3
20260502012036 67 302 12.0 18.0 0.00 0.00 0.00 50 1013.4
20260502011534 68 292 13.0 18.0 0.00 0.00 0.00 50 1013.4
20260502011312 68 294 12.0 17.0 0.00 0.00 0.00 50 1013.4
20260502010522 69 308 11.0 19.0 0.00 0.00 0.00 49 1013.4
20260502010011 69 308 9.0 19.0 0.00 0.00 0.00 49 1013.4
20260502005508 70 305 9.0 14.0 0.00 0.00 0.00 50 1013.4
20260502005008 70 340 10.0 16.0 0.00 0.00 0.00 50 1013.3
20260502004513 70 328 11.0 16.0 0.00 0.00 0.00 50 1013.3
20260502004007 71 296 12.0 18.0 0.00 0.00 0.00 48 1013.3
20260502003510 71 359 10.0 18.0 0.00 0.00 0.00 47 1013.2
20260502003008 72 305 8.0 14.0 0.00 0.00 0.00 47 1013.2
20260502002507 72 327 7.0 15.0 0.00 0.00 0.00 46 1013.2
20260502002003 72 359 7.0 15.0 0.00 0.00 0.00 46 1013.3
20260502001503 72 347 8.0 13.0 0.00 0.00 0.00 47 1013.3
20260502001002 71 359 8.0 13.0 0.00 0.00 0.00 47 1013.3
20260502000501 71 308 9.0 14.0 0.00 0.00 0.00 46 1013.3
20260502000001 71 335 8.0 14.0 0.00 0.00 0.00 46 1013.3
20260501235501 72 323 8.0 13.0 0.00 0.00 0.00 46 1013.3
20260501235001 72 326 10.0 16.0 0.00 0.00 0.00 45 1013.3
20260501234502 72 310 10.0 16.0 0.00 0.00 0.00 44 1013.3
20260501234004 73 319 9.0 15.0 0.00 0.00 0.00 44 1013.3
20260501233737 73 347 7.0 14.0 0.00 0.00 0.00 43 1013.4
20260501232948 74 23 7.0 10.0 0.00 0.00 0.00 41 1013.4
20260501232443 74 329 7.0 13.0 0.00 0.00 0.00 40 1013.4
20260501231941 74 328 7.0 13.0 0.00 0.00 0.00 41 1013.4
20260501231438 74 321 6.0 12.0 0.00 0.00 0.00 42 1013.4
20260501230936 73 9 8.0 14.0 0.00 0.00 0.00 41 1013.4
20260501230430 73 349 7.0 14.0 0.00 0.00 0.00 41 1013.7
20260501230212 74 354 5.0 13.0 0.00 0.00 0.00 41 1013.7
20260501225429 73 341 7.0 12.0 0.00 0.00 0.00 42 1013.7
20260501224928 73 32 7.0 12.0 0.00 0.00 0.00 42 1013.9
20260501224429 73 344 6.0 12.0 0.00 0.00 0.00 44 1013.9
20260501223930 73 359 6.0 10.0 0.00 0.00 0.00 42 1013.9
20260501223435 72 18 7.0 11.0 0.00 0.00 0.00 45 1013.9
20260501222933 72 334 7.0 11.0 0.00 0.00 0.00 45 1013.9
20260501222430 72 15 7.0 11.0 0.00 0.00 0.00 45 1013.9
20260501222207 72 35 8.0 11.0 0.00 0.00 0.00 45 1014.0
20260501221428 72 353 8.0 12.0 0.00 0.00 0.00 45 1014.0
20260501220929 72 43 7.0 12.0 0.00 0.00 0.00 46 1014.0
20260501220428 72 32 7.0 12.0 0.00 0.00 0.00 44 1014.3
20260501215931 72 15 7.0 10.0 0.00 0.00 0.00 46 1014.3
20260501215427 71 9 8.0 13.0 0.00 0.00 0.00 47 1014.3
20260501214913 71 23 6.0 13.0 0.00 0.00 0.00 47 1014.4
20260501214414 71 355 5.0 10.0 0.00 0.00 0.00 47 1014.4
20260501213916 71 25 6.0 10.0 0.00 0.00 0.00 48 1014.4
20260501213659 70 16 5.0 7.0 0.00 0.00 0.00 48 1014.6
20260501213157 70 15 4.0 7.0 0.00 0.00 0.00 49 1014.6
20260501212417 70 19 4.0 7.0 0.00 0.00 0.00 48 1014.6
20260501212149 70 9 4.0 6.0 0.00 0.00 0.00 47 1014.9
20260501211410 69 359 4.0 7.0 0.00 0.00 0.00 49 1014.9
20260501210909 69 16 4.0 7.0 0.00 0.00 0.00 48 1014.9
20260501210406 69 354 3.0 5.0 0.00 0.00 0.00 47 1014.9
20260501205906 68 17 3.0 6.0 0.00 0.00 0.00 48 1014.9
20260501205408 68 359 4.0 6.0 0.00 0.00 0.00 47 1014.9
20260501204904 68 9 4.0 6.0 0.00 0.00 0.00 48 1015.0
20260501204407 67 9 4.0 6.0 0.00 0.00 0.00 50 1015.0
20260501203901 67 9 4.0 6.0 0.00 0.00 0.00 48 1015.0
20260501203401 67 21 4.0 7.0 0.00 0.00 0.00 51 1015.0
20260501202903 67 359 5.0 7.0 0.00 0.00 0.00 51 1015.0
20260501202401 67 355 5.0 7.0 0.00 0.00 0.00 49 1015.0
20260501201904 66 30 5.0 7.0 0.00 0.00 0.00 50 1015.3
20260501201407 66 36 5.0 7.0 0.00 0.00 0.00 52 1015.3
20260501200906 65 21 5.0 9.0 0.00 0.00 0.00 52 1015.3
20260501200631 65 31 6.0 9.0 0.00 0.00 0.00 52 1015.4
20260501195853 64 24 7.0 10.0 0.00 0.00 0.00 53 1015.4
20260501195346 64 4 6.0 10.0 0.00 0.00 0.00 53 1015.4